DW6366 Weather Reports


Display with metric or nautical units.
time (UTC)temp
F
wind
direction
speed
MPH
gust
MPH
rain 1hr
in
rain 24hr
in
rain mn
in
humidity
%
barometer
mb
20260904090335 71 208 8.0 20.0 0.00 0.04 0.00 86 1010.8
20260904085337 71 169 5.0 21.0 0.00 0.04 0.00 86 1010.7
20260904084325 71 271 8.0 19.0 0.00 0.04 0.00 86 1010.6
20260904083342 70 208 9.0 19.0 0.00 0.04 0.00 86 1010.6
20260904082351 70 225 9.0 22.0 0.00 0.04 0.00 86 1010.6
20260904081350 70 197 11.0 18.0 0.00 0.04 0.00 86 1010.7
20260904080321 70 208 10.0 16.0 0.00 0.04 0.00 87 1010.6
20260904075335 70 252 6.0 19.0 0.00 0.04 0.00 87 1010.7
20260904074344 70 246 5.0 24.0 0.00 0.04 0.00 87 1010.7
20260904073323 70 286 9.0 16.0 0.00 0.04 0.00 87 1010.7
20260904072338 70 208 9.0 17.0 0.00 0.04 0.00 87 1010.9
20260904071335 70 228 8.0 22.0 0.00 0.04 0.00 87 1010.9
20260904070327 70 198 8.0 17.0 0.00 0.04 0.00 88 1010.7
20260904065321 70 275 9.0 15.0 0.00 0.20 0.00 87 1010.7
20260904064336 70 213 9.0 15.0 0.00 0.20 0.00 87 1010.7
20260904063333 70 175 8.0 17.0 0.00 0.20 0.00 87 1010.8
20260904062326 70 239 9.0 18.0 0.00 0.20 0.00 87 1011.0
20260904061320 69 194 9.0 15.0 0.00 0.20 0.00 88 1011.1
20260904060335 69 246 6.0 16.0 0.00 0.20 0.00 87 1011.2
20260904055335 69 213 7.0 13.0 0.00 0.35 0.00 88 1011.2
20260904054322 69 208 7.0 14.0 0.00 0.35 0.00 88 1011.3
20260904053334 69 180 9.0 16.0 0.00 0.35 0.00 88 1011.3
20260904052321 69 157 6.0 17.0 0.00 0.35 0.00 88 1011.6
20260904051328 69 241 6.0 15.0 0.00 0.35 0.00 88 1011.6
20260904050323 69 221 7.0 14.0 0.00 0.35 0.00 88 1011.8
20260904045327 69 250 7.0 13.0 0.00 0.35 0.00 88 1012.1
20260904044324 69 244 7.0 18.0 0.00 0.35 0.00 88 1012.3
20260904043338 69 213 7.0 17.0 0.00 0.35 0.00 88 1012.3
20260904042331 69 218 6.0 14.0 0.00 0.35 0.00 88 1012.5
20260904041323 69 253 7.0 17.0 0.00 0.35 0.00 88 1012.6
20260904040335 69 267 7.0 13.0 0.00 0.35 0.00 88 1012.6
20260904035336 69 229 7.0 13.0 0.00 0.35 0.00 88 1012.9
20260904034347 69 223 4.0 13.0 0.00 0.35 0.00 87 1012.9
20260904033344 69 213 7.0 14.0 0.00 0.35 0.00 87 1012.9
20260904032400 69 203 6.0 17.0 0.00 0.35 0.00 87 1012.9
20260904031323 69 230 7.0 13.0 0.00 0.35 0.00 87 1013.0
20260904030322 69 192 5.0 11.0 0.00 0.35 0.00 88 1013.1
20260904025400 69 192 6.0 12.0 0.00 0.35 0.00 88 1013.1
20260904024319 69 230 5.0 13.0 0.00 0.35 0.00 88 1013.3
20260904023325 69 273 5.0 14.0 0.00 0.35 0.00 88 1013.4
20260904022340 69 249 6.0 10.0 0.00 0.35 0.00 88 1013.5
20260904021349 69 230 6.0 12.0 0.00 0.35 0.00 88 1013.5
20260904020351 69 235 4.0 13.0 0.00 0.35 0.00 88 1013.7
20260904015344 69 250 8.0 15.0 0.00 0.35 0.00 88 1013.8
20260904014354 69 191 6.0 13.0 0.00 0.35 0.00 88 1014.0
20260904013349 69 236 7.0 14.0 0.00 0.35 0.00 88 1014.0
20260904012329 69 230 5.0 13.0 0.00 0.35 0.00 88 1014.1
20260904011327 69 208 7.0 16.0 0.00 0.35 0.00 89 1014.1
20260904010337 69 244 4.0 14.0 0.00 0.35 0.00 89 1014.4
20260904005333 69 219 7.0 13.0 0.00 0.35 0.00 88 1014.6
20260904004326 69 243 6.0 14.0 0.00 0.35 0.00 88 1014.6
20260904003330 69 213 5.0 11.0 0.00 0.35 0.00 88 1014.7
20260904002351 69 213 6.0 17.0 0.00 0.35 0.00 88 1014.8
20260904001323 69 246 4.0 12.0 0.00 0.35 0.00 88 1014.9
20260904000337 69 196 6.0 17.0 0.00 0.35 0.00 88 1015.0
20260903235325 69 225 6.0 17.0 0.00 0.35 0.00 88 1015.0
20260903234335 69 231 5.0 11.0 0.00 0.35 0.00 88 1015.1
20260903233323 69 274 6.0 14.0 0.00 0.35 0.00 88 1015.2
20260903232334 69 220 3.0 11.0 0.00 0.35 0.00 88 1015.2
20260903231329 69 203 5.0 11.0 0.00 0.35 0.00 88 1015.3
20260903230322 69 213 5.0 12.0 0.00 0.35 0.00 88 1015.5
20260903225336 69 306 4.0 15.0 0.00 0.35 0.00 88 1015.6
20260903224325 69 290 4.0 10.0 0.00 0.35 0.00 89 1015.6
20260903223320 69 190 4.0 12.0 0.00 0.35 0.00 89 1015.7
20260903222327 69 251 4.0 12.0 0.00 0.35 0.00 89 1015.9
20260903221322 69 181 4.0 13.0 0.00 0.35 0.00 89 1016.0
20260903220352 69 275 4.0 12.0 0.00 0.35 0.00 89 1016.1
20260903215323 69 236 4.0 10.0 0.00 0.35 0.07 89 1016.1
20260903214400 69 208 5.0 11.0 0.00 0.35 0.07 89 1016.2
20260903213336 69 213 3.0 9.0 0.00 0.35 0.07 89 1016.2
20260903212329 69 234 4.0 11.0 0.00 0.35 0.07 89 1016.3
20260903211333 69 225 4.0 10.0 0.00 0.35 0.07 89 1016.2
20260903210324 69 238 3.0 6.0 0.00 0.35 0.07 89 1016.3
20260903205334 69 232 4.0 9.0 0.00 0.35 0.07 89 1016.5
20260903204354 69 196 5.0 12.0 0.00 0.35 0.07 89 1016.8
20260903203400 69 203 4.0 11.0 0.00 0.35 0.07 89 1016.8
20260903202324 69 296 7.0 12.0 0.00 0.35 0.07 89 1016.8
20260903201333 69 251 3.0 12.0 0.00 0.35 0.07 89 1016.8
20260903200326 69 306 5.0 14.0 0.00 0.35 0.07 89 1016.8
20260903195340 69 192 4.0 10.0 0.00 0.35 0.07 89 1016.8
20260903194349 69 213 5.0 14.0 0.00 0.35 0.07 88 1016.9
20260903193327 69 243 4.0 7.0 0.00 0.35 0.07 88 1016.7
20260903192322 69 234 5.0 12.0 0.00 0.35 0.07 88 1016.7
20260903191341 69 265 5.0 13.0 0.00 0.35 0.07 88 1016.8
20260903190340 69 213 5.0 14.0 0.00 0.35 0.07 88 1016.8
20260903185346 69 184 5.0 12.0 0.00 0.35 0.07 88 1017.0
20260903184330 69 192 5.0 11.0 0.00 0.35 0.07 87 1017.0
20260903183340 70 240 4.0 12.0 0.00 0.35 0.07 87 1017.0
20260903182332 70 269 3.0 7.0 0.00 0.35 0.07 86 1017.0
20260903181322 70 203 4.0 10.0 0.00 0.35 0.07 86 1016.9
20260903180322 70 218 3.0 12.0 0.00 0.35 0.07 85 1016.9
20260903175354 71 252 4.0 9.0 0.00 0.35 0.07 85 1017.1
20260903174325 71 275 5.0 11.0 0.00 0.35 0.07 84 1016.9
20260903173324 71 267 6.0 12.0 0.00 0.35 0.07 84 1017.1
20260903172351 72 252 5.0 11.0 0.00 0.35 0.07 83 1017.1
20260903171355 72 290 6.0 15.0 0.00 0.35 0.07 83 1017.3
20260903170343 72 213 8.0 16.0 0.00 0.35 0.07 82 1017.1
20260903165329 72 230 5.0 13.0 0.00 0.35 0.07 82 1017.0
20260903164338 72 259 6.0 13.0 0.00 0.35 0.07 82 1017.0
20260903163349 72 244 7.0 15.0 0.00 0.35 0.07 82 1016.9
20260903162348 73 236 5.0 17.0 0.00 0.35 0.07 81 1017.4
20260903161327 73 185 6.0 17.0 0.00 0.35 0.07 80 1017.4
20260903160346 74 290 6.0 15.0 0.00 0.35 0.07 79 1017.1
20260903155341 74 213 7.0 16.0 0.00 0.35 0.07 79 1017.1
20260903154346 74 176 3.0 20.0 0.00 0.35 0.07 79 1017.2
20260903153322 74 261 6.0 15.0 0.00 0.35 0.07 76 1017.2
20260903152321 75 191 7.0 17.0 0.00 0.35 0.07 75 1017.4
20260903151334 76 252 6.0 17.0 0.00 0.35 0.07 75 1017.3
20260903150322 75 255 9.0 17.0 0.00 0.35 0.07 74 1017.4
20260903145334 76 129 8.0 20.0 0.00 0.35 0.07 75 1017.4
20260903144338 75 178 8.0 19.0 0.00 0.35 0.07 76 1017.3
20260903143353 74 280 7.0 21.0 0.00 0.35 0.07 78 1017.3
20260903142344 74 208 7.0 19.0 0.00 0.35 0.07 76 1017.2
20260903141324 73 294 8.0 19.0 0.00 0.35 0.07 78 1017.3
20260903140339 73 286 8.0 15.0 0.00 0.35 0.07 78 1017.2
20260903135337 74 213 9.0 16.0 0.00 0.35 0.07 77 1017.2
20260903134332 75 267 5.0 19.0 0.00 0.35 0.07 75 1017.3
20260903133338 75 309 14.0 21.0 0.00 0.35 0.07 72 1017.2
20260903132331 76 187 8.0 21.0 0.00 0.35 0.07 72 1017.2
20260903131343 75 213 9.0 20.0 0.00 0.35 0.07 72 1017.0
20260903130337 74 208 9.0 21.0 0.00 0.35 0.07 75 1017.1
20260903125346 74 294 5.0 16.0 0.00 0.35 0.07 75 1017.0
20260903124348 74 263 7.0 20.0 0.00 0.35 0.07 74 1016.9
20260903123335 74 264 10.0 21.0 0.00 0.35 0.07 74 1017.0
20260903122343 75 286 12.0 20.0 0.00 0.35 0.07 75 1017.0
20260903121342 74 208 8.0 22.0 0.00 0.35 0.07 75 1016.8
20260903120347 75 296 7.0 15.0 0.00 0.35 0.07 77 1016.8
20260903115323 74 267 8.0 21.0 0.00 0.35 0.07 76 1016.8
20260903114407 75 309 9.0 17.0 0.00 0.35 0.07 75 1016.7
20260903113356 75 327 7.0 16.0 0.00 0.35 0.07 78 1016.7
20260903112324 74 292 4.0 18.0 0.00 0.35 0.07 79 1016.8
20260903111334 72 290 12.0 21.0 0.00 0.35 0.07 81 1016.8
20260903110323 71 240 6.0 19.0 0.04 0.35 0.07 84 1016.8
20260903105330 71 254 8.0 17.0 0.04 0.35 0.07 85 1016.9
20260903104344 71 232 7.0 20.0 0.04 0.35 0.07 84 1016.9
20260903103336 71 286 6.0 15.0 0.04 0.35 0.07 83 1016.7
20260903102345 71 306 9.0 19.0 0.04 0.35 0.07 83 1016.7